Time,TemperatureF,DewpointF,PressureIn,WindDirection,WindDirectionDegrees,WindSpeedMPH,WindSpeedGustMPH,Humidity,HourlyPrecipIn,Conditions,Clouds,dailyrainin,SoftwareType,DateUTC
2013-01-09 00:11:00,22.3,21.0,28.56,East,86,0.0,0.0,95,0.00,,,0.00,weatherlink.com 1.10,2013-01-09 05:11:00,
2013-01-09 00:26:00,22.1,21.0,28.56,East,87,0.0,0.0,95,0.00,,,0.00,weatherlink.com 1.10,2013-01-09 05:26:00,
2013-01-09 00:41:00,22.9,22.0,28.55,East,86,0.0,0.0,95,0.00,,,0.00,weatherlink.com 1.10,2013-01-09 05:41:00,
2013-01-09 00:56:00,21.7,20.0,28.55,East,82,0.0,1.0,94,0.00,,,0.00,weatherlink.com 1.10,2013-01-09 05:56:00,
2013-01-09 01:11:00,21.0,19.0,28.55,East,82,0.0,0.0,93,0.00,,,0.00,weatherlink.com 1.10,2013-01-09 06:11:00,
2013-01-09 01:26:00,20.4,19.0,28.55,East,82,0.0,0.0,94,0.00,,,0.00,weatherlink.com 1.10,2013-01-09 06:26:00,
2013-01-09 01:41:00,20.7,20.0,28.55,East,84,0.0,0.0,95,0.00,,,0.00,weatherlink.com 1.10,2013-01-09 06:41:00,
2013-01-09 01:56:00,21.9,21.0,28.55,SW,231,0.0,1.0,96,0.00,,,0.00,weatherlink.com 1.10,2013-01-09 06:56:00,
2013-01-09 02:11:00,22.8,22.0,28.55,SW,231,0.0,0.0,96,0.00,,,0.00,weatherlink.com 1.10,2013-01-09 07:11:00,
2013-01-09 02:26:00,22.5,21.0,28.55,SW,231,0.0,0.0,95,0.00,,,0.00,weatherlink.com 1.10,2013-01-09 07:26:00,
2013-01-09 02:41:00,23.1,22.0,28.55,SW,231,0.0,0.0,95,0.00,,,0.00,weatherlink.com 1.10,2013-01-09 07:41:00,
2013-01-09 02:56:00,22.5,21.0,28.55,SW,231,0.0,0.0,95,0.00,,,0.00,weatherlink.com 1.10,2013-01-09 07:56:00,
2013-01-09 03:11:00,23.7,23.0,28.55,ESE,122,0.0,0.0,96,0.00,,,0.00,weatherlink.com 1.10,2013-01-09 08:11:00,
2013-01-09 03:26:00,23.9,23.0,28.54,ESE,123,0.0,0.0,95,0.00,,,0.00,weatherlink.com 1.10,2013-01-09 08:26:00,
2013-01-09 03:41:00,24.4,23.0,28.54,NE,49,0.0,1.0,95,0.00,,,0.00,weatherlink.com 1.10,2013-01-09 08:41:00,
2013-01-09 03:56:00,24.7,24.0,28.54,NE,47,0.0,1.0,95,0.00,,,0.00,weatherlink.com 1.10,2013-01-09 08:56:00,
2013-01-09 04:11:00,25.0,24.0,28.54,NE,47,0.0,1.0,95,0.00,,,0.00,weatherlink.com 1.10,2013-01-09 09:11:00,
2013-01-09 04:26:00,25.7,24.0,28.54,NE,47,0.0,1.0,94,0.00,,,0.00,weatherlink.com 1.10,2013-01-09 09:26:00,
2013-01-09 04:41:00,25.3,24.0,28.54,NE,47,0.0,0.0,94,0.00,,,0.00,weatherlink.com 1.10,2013-01-09 09:41:00,
2013-01-09 04:56:00,25.0,23.0,28.54,SE,139,0.0,1.0,93,0.00,,,0.00,weatherlink.com 1.10,2013-01-09 09:56:00,
2013-01-09 05:11:00,23.9,22.0,28.54,SE,132,0.0,0.0,92,0.00,,,0.00,weatherlink.com 1.10,2013-01-09 10:11:00,
2013-01-09 05:26:00,23.8,22.0,28.54,SE,132,0.0,0.0,94,0.00,,,0.00,weatherlink.com 1.10,2013-01-09 10:26:00,
2013-01-09 05:41:00,23.5,22.0,28.54,SE,132,0.0,0.0,94,0.00,,,0.00,weatherlink.com 1.10,2013-01-09 10:41:00,
2013-01-09 05:56:00,22.9,21.0,28.54,East,86,0.0,1.0,93,0.00,,,0.00,weatherlink.com 1.10,2013-01-09 10:56:00,
2013-01-09 06:11:00,23.2,22.0,28.54,East,86,0.0,0.0,95,0.00,,,0.00,weatherlink.com 1.10,2013-01-09 11:11:00,
2013-01-09 06:26:00,23.3,22.0,28.54,East,86,0.0,0.0,95,0.00,,,0.00,weatherlink.com 1.10,2013-01-09 11:26:00,
2013-01-09 06:41:00,22.9,22.0,28.55,East,86,0.0,0.0,94,0.00,,,0.00,weatherlink.com 1.10,2013-01-09 11:41:00,
2013-01-09 06:56:00,22.5,21.0,28.55,East,86,0.0,0.0,95,0.00,,,0.00,weatherlink.com 1.10,2013-01-09 11:56:00,
2013-01-09 07:11:00,22.7,22.0,28.56,South,174,0.0,1.0,95,0.00,,,0.00,weatherlink.com 1.10,2013-01-09 12:11:00,
2013-01-09 07:26:00,22.7,22.0,28.57,East,99,0.0,0.0,95,0.00,,,0.00,weatherlink.com 1.10,2013-01-09 12:26:00,
2013-01-09 07:41:00,23.6,23.0,28.57,East,99,0.0,0.0,96,0.00,,,0.00,weatherlink.com 1.10,2013-01-09 12:41:00,
2013-01-09 07:56:00,24.7,24.0,28.57,East,81,0.0,0.0,96,0.00,,,0.00,weatherlink.com 1.10,2013-01-09 12:56:00,
2013-01-09 08:11:00,26.0,25.0,28.57,SE,141,0.0,1.0,96,0.00,,,0.00,weatherlink.com 1.10,2013-01-09 13:11:00,
2013-01-09 08:26:00,27.1,26.0,28.57,South,190,0.0,1.0,96,0.00,,,0.00,weatherlink.com 1.10,2013-01-09 13:26:00,
2013-01-09 08:41:00,28.3,27.0,28.56,South,190,0.0,1.0,95,0.00,,,0.00,weatherlink.com 1.10,2013-01-09 13:41:00,
2013-01-09 08:56:00,29.4,28.0,28.57,SSW,210,0.0,2.0,95,0.00,,,0.00,weatherlink.com 1.10,2013-01-09 13:56:00,
2013-01-09 09:11:00,30.5,29.0,28.57,SSW,204,0.0,1.0,94,0.00,,,0.00,weatherlink.com 1.10,2013-01-09 14:11:00,
2013-01-09 09:27:00,31.6,30.0,28.57,SSW,205,0.0,0.0,93,0.00,,,0.00,weatherlink.com 1.10,2013-01-09 14:27:00,
2013-01-09 09:42:00,33.2,32.0,28.56,SSW,203,0.0,0.0,94,0.00,,,0.00,weatherlink.com 1.10,2013-01-09 14:42:00,
2013-01-09 09:57:00,35.1,33.0,28.55,SSW,203,0.0,1.0,93,0.00,,,0.00,weatherlink.com 1.10,2013-01-09 14:57:00,
2013-01-09 10:12:00,37.0,34.0,28.55,SSW,201,0.0,1.0,90,0.00,,,0.00,weatherlink.com 1.10,2013-01-09 15:12:00,
2013-01-09 10:27:00,38.5,34.0,28.54,SSW,195,0.0,2.0,85,0.00,,,0.00,weatherlink.com 1.10,2013-01-09 15:27:00,
2013-01-09 10:42:00,40.2,35.0,28.54,SSW,195,0.0,1.0,82,0.00,,,0.00,weatherlink.com 1.10,2013-01-09 15:42:00,
2013-01-09 10:57:00,41.1,36.0,28.55,SSW,199,0.0,2.0,81,0.00,,,0.00,weatherlink.com 1.10,2013-01-09 15:57:00,
2013-01-09 11:12:00,42.2,36.0,28.53,ENE,75,0.0,1.0,80,0.00,,,0.00,weatherlink.com 1.10,2013-01-09 16:12:00,
2013-01-09 11:27:00,42.9,36.0,28.52,ESE,120,0.0,2.0,78,0.00,,,0.00,weatherlink.com 1.10,2013-01-09 16:27:00,
2013-01-09 11:42:00,43.8,38.0,28.52,South,186,0.0,1.0,79,0.00,,,0.00,weatherlink.com 1.10,2013-01-09 16:42:00,
2013-01-09 11:57:00,45.0,38.0,28.51,South,186,0.0,1.0,75,0.00,,,0.00,weatherlink.com 1.10,2013-01-09 16:57:00,
2013-01-09 12:12:00,46.8,38.0,28.51,South,187,1.0,2.0,72,0.00,,,0.00,weatherlink.com 1.10,2013-01-09 17:12:00,
2013-01-09 12:27:00,47.8,39.0,28.51,South,186,0.0,2.0,71,0.00,,,0.00,weatherlink.com 1.10,2013-01-09 17:27:00,
2013-01-09 12:42:00,47.8,39.0,28.50,NE,54,0.0,3.0,72,0.00,,,0.00,weatherlink.com 1.10,2013-01-09 17:42:00,
2013-01-09 12:57:00,48.1,40.0,28.50,ENE,61,0.0,2.0,73,0.00,,,0.00,weatherlink.com 1.10,2013-01-09 17:57:00,
2013-01-09 13:12:00,49.3,42.0,28.49,NE,53,0.0,2.0,75,0.00,,,0.00,weatherlink.com 1.10,2013-01-09 18:12:00,
2013-01-09 13:28:00,51.4,43.0,28.49,ENE,63,0.0,2.0,73,0.00,,,0.00,weatherlink.com 1.10,2013-01-09 18:28:00,
2013-01-09 13:43:00,53.8,45.0,28.50,WSW,240,4.0,8.0,71,0.00,,,0.00,weatherlink.com 1.10,2013-01-09 18:43:00,
2013-01-09 13:58:00,56.4,45.0,28.50,South,187,8.0,17.0,65,0.00,,,0.00,weatherlink.com 1.10,2013-01-09 18:58:00,
2013-01-09 14:13:00,58.3,46.0,28.49,SSW,197,0.0,10.0,64,0.00,,,0.00,weatherlink.com 1.10,2013-01-09 19:13:00,
2013-01-09 14:28:00,59.8,46.0,28.48,SW,228,4.0,10.0,60,0.00,,,0.00,weatherlink.com 1.10,2013-01-09 19:28:00,
2013-01-09 14:43:00,59.3,46.0,28.48,East,81,0.0,10.0,62,0.00,,,0.00,weatherlink.com 1.10,2013-01-09 19:43:00,
2013-01-09 14:58:00,59.4,46.0,28.46,SSW,212,6.0,9.0,61,0.00,,,0.00,weatherlink.com 1.10,2013-01-09 19:58:00,
2013-01-09 15:13:00,60.1,46.0,28.48,South,176,3.0,10.0,60,0.00,,,0.00,weatherlink.com 1.10,2013-01-09 20:13:00,
2013-01-09 15:28:00,59.6,45.0,28.48,SW,233,5.0,9.0,60,0.00,,,0.00,weatherlink.com 1.10,2013-01-09 20:28:00,
2013-01-09 15:43:00,58.3,46.0,28.49,WSW,240,3.0,6.0,63,0.00,,,0.00,weatherlink.com 1.10,2013-01-09 20:43:00,
2013-01-09 15:58:00,57.4,46.0,28.49,South,176,0.0,10.0,65,0.00,,,0.00,weatherlink.com 1.10,2013-01-09 20:58:00,
2013-01-09 16:13:00,56.8,46.0,28.49,SSE,156,3.0,8.0,67,0.00,,,0.00,weatherlink.com 1.10,2013-01-09 21:13:00,
2013-01-09 16:28:00,56.0,46.0,28.49,South,185,2.0,7.0,69,0.00,,,0.00,weatherlink.com 1.10,2013-01-09 21:28:00,
2013-01-09 16:43:00,55.5,46.0,28.50,WSW,238,0.0,8.0,71,0.00,,,0.00,weatherlink.com 1.10,2013-01-09 21:43:00,
2013-01-09 16:58:00,55.2,46.0,28.50,South,190,3.0,13.0,72,0.00,,,0.00,weatherlink.com 1.10,2013-01-09 21:58:00,
2013-01-09 17:13:00,54.5,46.0,28.50,SW,228,3.0,7.0,73,0.00,,,0.00,weatherlink.com 1.10,2013-01-09 22:13:00,
2013-01-09 17:28:00,54.2,46.0,28.50,West,270,1.0,8.0,74,0.00,,,0.00,weatherlink.com 1.10,2013-01-09 22:28:00,
2013-01-09 17:43:00,54.0,46.0,28.51,WSW,243,4.0,10.0,74,0.00,,,0.00,weatherlink.com 1.10,2013-01-09 22:43:00,
2013-01-09 17:58:00,53.6,46.0,28.51,NW,321,1.0,8.0,74,0.00,,,0.00,weatherlink.com 1.10,2013-01-09 22:58:00,
2013-01-09 18:13:00,53.2,45.0,28.52,ESE,105,1.0,7.0,74,0.00,,,0.00,weatherlink.com 1.10,2013-01-09 23:13:00,
2013-01-09 18:28:00,53.5,45.0,28.54,North,4,0.0,11.0,74,0.00,,,0.00,weatherlink.com 1.10,2013-01-09 23:28:00,
2013-01-09 18:43:00,53.1,45.0,28.55,South,177,2.0,8.0,73,0.00,,,0.00,weatherlink.com 1.10,2013-01-09 23:43:00,
2013-01-09 18:58:00,52.6,43.0,28.55,SW,222,2.0,9.0,71,0.00,,,0.00,weatherlink.com 1.10,2013-01-09 23:58:00,
2013-01-09 19:13:00,51.4,42.0,28.55,South,188,1.0,6.0,69,0.00,,,0.00,weatherlink.com 1.10,2013-01-10 00:13:00,
2013-01-09 19:28:00,49.9,38.0,28.56,SW,219,1.0,9.0,65,0.00,,,0.00,weatherlink.com 1.10,2013-01-10 00:28:00,
2013-01-09 19:43:00,49.1,36.0,28.57,South,181,2.0,8.0,62,0.00,,,0.00,weatherlink.com 1.10,2013-01-10 00:43:00,
2013-01-09 19:58:00,48.3,35.0,28.58,WNW,297,1.0,7.0,61,0.00,,,0.00,weatherlink.com 1.10,2013-01-10 00:58:00,
2013-01-09 20:13:00,47.8,33.0,28.58,SW,217,1.0,3.0,58,0.00,,,0.00,weatherlink.com 1.10,2013-01-10 01:13:00,
2013-01-09 20:28:00,46.2,34.0,28.58,SW,228,2.0,3.0,62,0.00,,,0.00,weatherlink.com 1.10,2013-01-10 01:28:00,
2013-01-09 20:43:00,44.4,33.0,28.58,WSW,240,0.0,5.0,65,0.00,,,0.00,weatherlink.com 1.10,2013-01-10 01:43:00,
2013-01-09 20:58:00,43.4,33.0,28.59,SSW,193,0.0,1.0,66,0.00,,,0.00,weatherlink.com 1.10,2013-01-10 01:58:00,
2013-01-09 21:13:00,40.9,32.0,28.59,ESE,110,0.0,1.0,71,0.00,,,0.00,weatherlink.com 1.10,2013-01-10 02:13:00,
2013-01-09 21:28:00,39.3,32.0,28.60,East,87,1.0,1.0,74,0.00,,,0.00,weatherlink.com 1.10,2013-01-10 02:28:00,
2013-01-09 21:44:00,38.9,31.0,28.61,West,264,0.0,3.0,74,0.00,,,0.00,weatherlink.com 1.10,2013-01-10 02:44:00,
2013-01-09 21:59:00,37.3,31.0,28.61,West,262,1.0,3.0,78,0.00,,,0.00,weatherlink.com 1.10,2013-01-10 02:59:00,
2013-01-09 22:14:00,36.5,30.0,28.62,ENE,77,1.0,1.0,77,0.00,,,0.00,weatherlink.com 1.10,2013-01-10 03:14:00,
2013-01-09 22:29:00,36.5,30.0,28.62,East,84,3.0,3.0,76,0.00,,,0.00,weatherlink.com 1.10,2013-01-10 03:29:00,
2013-01-09 22:44:00,35.9,30.0,28.63,East,82,0.0,3.0,78,0.00,,,0.00,weatherlink.com 1.10,2013-01-10 03:44:00,
2013-01-09 22:59:00,35.4,29.0,28.64,East,90,0.0,2.0,76,0.00,,,0.00,weatherlink.com 1.10,2013-01-10 03:59:00,
2013-01-09 23:14:00,34.6,29.0,28.64,East,93,0.0,1.0,80,0.00,,,0.00,weatherlink.com 1.10,2013-01-10 04:14:00,
2013-01-09 23:29:00,37.1,29.0,28.64,East,82,0.0,19.0,73,0.00,,,0.00,weatherlink.com 1.10,2013-01-10 04:29:00,
2013-01-09 23:44:00,35.7,28.0,28.64,West,276,0.0,4.0,73,0.00,,,0.00,weatherlink.com 1.10,2013-01-10 04:44:00,
2013-01-09 23:59:00,33.8,28.0,28.65,WNW,283,0.0,0.0,78,0.00,,,0.00,weatherlink.com 1.10,2013-01-10 04:59:00,